Weather History for Wheaton NDB, MN

Change the Weather History Date:

Tuesday, March 25, 2014

  Actual Average Record
Temperature  
Mean Temperature 19 °F -  
Max Temperature 28 °F 44 °F 75 °F (1968)
Min Temperature 10 °F 26 °F -5 °F (1955)
Degree Days  
Heating Degree Days 46    
Moisture  
Dew Point 7 °F    
Average Humidity 60    
Maximum Humidity 85    
Minimum Humidity 40    
Precipitation  
Precipitation 0.00 in - - ()
Sea Level Pressure  
Sea Level Pressure 30.26 in    
Wind  
Wind Speed 12 mph (WNW)    
Max Wind Speed 22 mph    
Max Gust Speed 29 mph    
Visibility 10 miles    
Events      
Averages and records for this station are not official NWS values.
T = Trace of Precipitation, MM = Missing Value Source: NWS Daily Summary

Daily Weather History Graph

Daily Weather History Graph

Search for Another Location

Airport:

Trip Planner

Search our weather history database for the weather conditions in past years. The results will help you decide how hot, cold, wet, or windy it might be!

Date:

Astronomy

Mar. 25, 2014 Rise Set
Actual Time 7:19 AM CDT 7:45 PM CDT
Civil Twilight 6:49 AM CDT 8:15 PM CDT
Nautical Twilight 6:14 AM CDT 8:50 PM CDT
Astronomical Twilight 5:38 AM CDT 9:27 PM CDT
Moon 3:57 AM CDT (3/25) 2:02 PM CDT (3/25)
Length of Visible Light 13h 25m
Length of Day
12h 25m
Waning Crescent, 32% of the Moon is Illuminated
Mar 25
Waning Crescent
Mar 30
New
Apr 7
First Quarter
Apr 15
Full
Apr 22
Last Quarter

Hourly Weather History & Observations

Time (CDT) Temp. Windchill Dew Point Humidity Pressure Visibility Wind Dir Wind Speed Gust Speed Precip Events Conditions
12:14 AM 19.4 °F 4.5 °F 10.4 °F 68% 30.27 in 10.0 mi NW 17.3 mph 24.2 mph N/A   Mostly Cloudy
12:34 AM 19.4 °F 4.5 °F 10.4 °F 68% 30.27 in 10.0 mi NW 17.3 mph 24.2 mph N/A   Scattered Clouds
12:54 AM 17.6 °F 0.5 °F 8.6 °F 68% 30.28 in 10.0 mi NW 21.9 mph 28.8 mph N/A   Scattered Clouds
1:14 AM 17.6 °F 1.7 °F 8.6 °F 68% 30.28 in 10.0 mi NW 18.4 mph 25.3 mph N/A   Scattered Clouds
1:34 AM 17.6 °F 1.7 °F 6.8 °F 63% 30.29 in 10.0 mi NW 18.4 mph 24.2 mph N/A   Scattered Clouds
1:54 AM 15.8 °F 0.9 °F 6.8 °F 68% 30.30 in 10.0 mi NW 15.0 mph 25.3 mph N/A   Clear
2:14 AM 15.8 °F 0.9 °F 6.8 °F 68% 30.30 in 10.0 mi NW 15.0 mph 18.4 mph N/A   Clear
2:34 AM 15.8 °F 0.9 °F 6.8 °F 68% 30.30 in 10.0 mi NW 15.0 mph 21.9 mph N/A   Clear
2:54 AM 14.0 °F -0.2 °F 6.8 °F 73% 30.31 in 10.0 mi NW 12.7 mph - N/A   Clear
3:14 AM 14.0 °F -1.4 °F 6.8 °F 73% 30.31 in 10.0 mi NW 15.0 mph 21.9 mph N/A   Clear
3:34 AM 14.0 °F -1.4 °F 5.0 °F 67% 30.31 in 10.0 mi NW 15.0 mph - N/A   Clear
3:54 AM 14.0 °F -1.4 °F 5.0 °F 67% 30.31 in 10.0 mi NW 15.0 mph 18.4 mph N/A   Clear
4:14 AM 12.2 °F -3.1 °F 5.0 °F 73% 30.32 in 10.0 mi NW 13.8 mph 19.6 mph N/A   Clear
4:34 AM 12.2 °F -2.5 °F 5.0 °F 73% 30.33 in 10.0 mi NW 12.7 mph - N/A   Clear
4:54 AM 12.2 °F -1.8 °F 5.0 °F 73% 30.33 in 10.0 mi NW 11.5 mph 17.3 mph N/A   Clear
5:14 AM 12.2 °F -1.0 °F 5.0 °F 73% 30.33 in 10.0 mi NW 10.4 mph - N/A   Clear
5:34 AM 12.2 °F -0.2 °F 5.0 °F 73% 30.33 in 10.0 mi NW 9.2 mph - N/A   Scattered Clouds
5:54 AM 10.4 °F 0.8 °F 5.0 °F 79% 30.33 in 10.0 mi WNW 5.8 mph - N/A   Clear
6:14 AM 10.4 °F -1.5 °F 6.8 °F 85% 30.33 in 10.0 mi WNW 8.1 mph - N/A   Clear
6:34 AM 10.4 °F -1.5 °F 6.8 °F 85% 30.33 in 10.0 mi WNW 8.1 mph - N/A   Clear
6:54 AM 10.4 °F -1.5 °F 5.0 °F 79% 30.33 in 10.0 mi WNW 8.1 mph - N/A   Clear
7:14 AM 10.4 °F -1.5 °F 5.0 °F 79% 30.33 in 10.0 mi WNW 8.1 mph - N/A   Clear
7:34 AM 10.4 °F -0.4 °F 5.0 °F 79% 30.34 in 10.0 mi WNW 6.9 mph - N/A   Clear
7:54 AM 12.2 °F 0.7 °F 6.8 °F 79% 30.34 in 10.0 mi WNW 8.1 mph - N/A   Clear
8:14 AM 12.2 °F -1.0 °F 6.8 °F 79% 30.34 in 10.0 mi WNW 10.4 mph - N/A   Clear
8:34 AM 12.2 °F -2.5 °F 6.8 °F 79% 30.35 in 10.0 mi WNW 12.7 mph 17.3 mph N/A   Clear
8:54 AM 14.0 °F 0.5 °F 6.8 °F 73% 30.36 in 10.0 mi WNW 11.5 mph 19.6 mph N/A   Clear
9:14 AM 15.8 °F 1.4 °F 6.8 °F 68% 30.35 in 10.0 mi WNW 13.8 mph 17.3 mph N/A   Clear
9:34 AM 15.8 °F 2.1 °F 6.8 °F 68% 30.35 in 10.0 mi WNW 12.7 mph 19.6 mph N/A   Scattered Clouds
9:54 AM 15.8 °F 2.7 °F 6.8 °F 68% 30.35 in 10.0 mi NW 11.5 mph - N/A   Clear
10:14 AM 17.6 °F 5.7 °F 6.8 °F 63% 30.35 in 10.0 mi WNW 10.4 mph 16.1 mph N/A   Clear
10:34 AM 17.6 °F 4.3 °F 6.8 °F 63% 30.35 in 10.0 mi West 12.7 mph - N/A   Scattered Clouds
10:54 AM 17.6 °F 5.0 °F 6.8 °F 63% 30.34 in 10.0 mi West 11.5 mph 17.3 mph N/A   Scattered Clouds
11:14 AM 19.4 °F 5.0 °F 6.8 °F 58% 30.34 in 10.0 mi West 16.1 mph - N/A   Clear
11:34 AM 19.4 °F 6.0 °F 6.8 °F 58% 30.34 in 10.0 mi West 13.8 mph - N/A   Scattered Clouds
11:54 AM 21.2 °F 10.1 °F 6.8 °F 54% 30.33 in 10.0 mi WNW 10.4 mph 18.4 mph N/A   Scattered Clouds
12:14 PM 21.2 °F 8.9 °F 6.8 °F 54% 30.32 in 10.0 mi WNW 12.7 mph 17.3 mph N/A   Scattered Clouds
12:34 PM 21.2 °F 10.9 °F 6.8 °F 54% 30.31 in 10.0 mi NW 9.2 mph 19.6 mph N/A   Clear
12:54 PM 23.0 °F 10.6 °F 6.8 °F 50% 30.30 in 10.0 mi West 13.8 mph 21.9 mph N/A   Scattered Clouds
1:14 PM 23.0 °F 11.1 °F 6.8 °F 50% 30.30 in 10.0 mi West 12.7 mph - N/A   Scattered Clouds
1:34 PM 24.8 °F 14.6 °F 6.8 °F 46% 30.29 in 10.0 mi WNW 10.4 mph 19.6 mph N/A   Scattered Clouds
1:54 PM 26.6 °F 16.8 °F 8.6 °F 47% 30.28 in 10.0 mi West 10.4 mph 21.9 mph N/A   Clear
2:14 PM 26.6 °F 15.2 °F 8.6 °F 47% 30.27 in 10.0 mi WNW 13.8 mph 19.6 mph N/A   Clear
2:34 PM 26.6 °F 15.2 °F 6.8 °F 43% 30.26 in 10.0 mi West 13.8 mph 19.6 mph N/A   Clear
2:54 PM 28.4 °F 20.4 °F 6.8 °F 40% 30.25 in 10.0 mi NW 8.1 mph 17.3 mph N/A   Clear
3:14 PM 28.4 °F 19.1 °F 6.8 °F 40% 30.24 in 10.0 mi WNW 10.4 mph 18.4 mph N/A   Clear
3:34 PM 28.4 °F 17.5 °F 6.8 °F 40% 30.23 in 10.0 mi WNW 13.8 mph 18.4 mph N/A   Clear
3:54 PM 28.4 °F 18.5 °F 6.8 °F 40% 30.22 in 10.0 mi NW 11.5 mph - N/A   Clear
4:14 PM 28.4 °F 19.7 °F 6.8 °F 40% 30.21 in 10.0 mi WNW 9.2 mph - N/A   Clear
4:34 PM 28.4 °F 18.5 °F 6.8 °F 40% 30.20 in 10.0 mi WNW 11.5 mph - N/A   Clear
4:54 PM 28.4 °F 20.4 °F 6.8 °F 40% 30.20 in 10.0 mi WNW 8.1 mph - N/A   Clear
5:14 PM 28.4 °F 19.7 °F 6.8 °F 40% 30.19 in 10.0 mi West 9.2 mph - N/A   Clear
5:34 PM 28.4 °F 20.4 °F 6.8 °F 40% 30.18 in 10.0 mi WNW 8.1 mph - N/A   Clear
5:54 PM 28.4 °F 22.2 °F 6.8 °F 40% 30.18 in 10.0 mi West 5.8 mph 9.2 mph N/A   Clear
6:14 PM 28.4 °F 20.4 °F 6.8 °F 40% 30.18 in 10.0 mi WNW 8.1 mph - N/A   Clear
6:34 PM 28.4 °F 19.1 °F 6.8 °F 40% 30.17 in 10.0 mi WNW 10.4 mph - N/A   Clear
6:54 PM 28.4 °F 20.4 °F 6.8 °F 40% 30.16 in 10.0 mi WNW 8.1 mph - N/A   Clear
7:14 PM 28.4 °F 23.3 °F 6.8 °F 40% 30.16 in 10.0 mi West 4.6 mph - N/A   Clear
7:34 PM 26.6 °F 21.2 °F 6.8 °F 43% 30.15 in 10.0 mi WNW 4.6 mph - N/A   Clear
7:54 PM 26.6 °F - 8.6 °F 47% 30.15 in 10.0 mi Calm Calm - N/A   Clear
8:14 PM 26.6 °F 22.6 °F 8.6 °F 47% 30.15 in 10.0 mi West 3.5 mph - N/A   Clear
8:34 PM 24.8 °F - 8.6 °F 50% 30.14 in 10.0 mi Calm Calm - N/A   Clear
8:54 PM 24.8 °F - 10.4 °F 54% 30.13 in 10.0 mi Calm Calm - N/A   Clear
9:14 PM 23.0 °F - 10.4 °F 59% 30.13 in 10.0 mi Calm Calm - N/A   Clear
9:34 PM 21.2 °F 16.4 °F 10.4 °F 63% 30.13 in 10.0 mi South 3.5 mph - N/A   Clear
9:54 PM 23.0 °F 17.0 °F 8.6 °F 54% 30.12 in 10.0 mi South 4.6 mph - N/A   Clear
10:14 PM 21.2 °F 14.9 °F 10.4 °F 63% 30.12 in 10.0 mi SSE 4.6 mph - N/A   Clear
10:34 PM 19.4 °F 12.8 °F 10.4 °F 68% 30.12 in 10.0 mi SSE 4.6 mph - N/A   Clear
10:54 PM 19.4 °F 11.5 °F 10.4 °F 68% 30.11 in 10.0 mi SSE 5.8 mph - N/A   Clear
11:14 PM 19.4 °F 11.5 °F 10.4 °F 68% 30.10 in 10.0 mi SSE 5.8 mph - N/A   Clear
11:34 PM 17.6 °F 9.3 °F 10.4 °F 73% 30.09 in 10.0 mi SE 5.8 mph - N/A   Clear
11:54 PM 19.4 °F 11.5 °F 10.4 °F 68% 30.09 in 10.0 mi SSE 5.8 mph - N/A   Clear